sat.trackr.live / text

‹ back to catalog

STARLINK-35294

NORAD 65755 · 2025-216X

PAYLOAD ACTIVE UNKNOWN

§ Identity

Operator
Country
US
Launch date
2025-09-25
Launch site
AFETR
Launch vehicle
Mass (kg)
RCS (m²)

Purposes: comms

External: N2YO · Heavens-Above · Gunter

§ Orbital elements

Epoch: 2026-05-24T22:48:56.445984Z

Period
94.10 min
Inclination
53.1601°
Eccentricity
0.0000784
Mean motion
15.30209148 rev/d
Perigee alt
474.7 km
Apogee alt
475.7 km
Semi-major
6,853.3 km
B*
9.4999e-4
RAAN
338.3695°
Arg perigee
89.0474°
Mean anomaly
271.0616°
Rev number
3,822

§ Raw data

STARLINK-352941 65755U 25216X   26144.95065331  .00027891  00000+0  94999-3 0  99922 65755  53.1601 338.3695 0000784  89.0474 271.0616 15.30209148 38225

JSON: /api/v1/satellites/65755 · /tle

For live sub-satellite position, see the globe view (requires WebGL).

§ Visibility from observer

Set your observer location to see the next 7 days of passes ≥ 10°. The values pass through the URL so the page stays shareable.

No JS? Fill the form by hand. The geolocation button needs JavaScript.